Regional Weather Roundup
Issued by NWS

Home | Current Version | Previous Version | Graphics & Text | Print | Product List | Glossary On
Versions: 1 2 3 4 5 6 7 8 9 10 11 12 13 14 15 16 17 18 19 20 21 22 23 24 25 26 27 28
000
ASUS45 KCYS 201110
RWRWY

WYOMING REGIONAL WEATHER ROUNDUP
NATIONAL WEATHER SERVICE CHEYENNE WY
400 AM MST MON NOV 20 2017

NOTE:  "FAIR" INDICATES FEW OR NO CLOUDS BELOW 12,000 FEET
WITH NO SIGNIFICANT WEATHER AND/OR OBSTRUCTIONS TO VISIBILITY.

WYZ001-201200-
YELLOWSTONE NATIONAL PARK

CITY           SKY/WX    TMP DP  RH WIND       PRES   REMARKS
LK YELLOWSTONE   N/A     15  13  91 W3        29.96S
W YELLOWSTONE  NOT AVBL

$$
WYZ002>013-054>058-071-098>099-201200-
NORTHERN WYOMING

CITY           SKY/WX    TMP DP  RH WIND       PRES   REMARKS
JACKSON        CLOUDY    27  19  72 SW10        N/A  WCI  17
CODY           FAIR      46   8  21 E13       29.70F
GREYBULL       FAIR      24  22  91 CALM      29.75F
WORLAND        FAIR      22  21  96 VRB3      29.75F
SHERIDAN       FAIR      55  10  16 W21G36    29.62F
BUFFALO        FAIR      53   4  13 W3        29.66F
GILLETTE       FAIR      44  11  26 SW23G35   29.64S
HULETT         FAIR      43  12  28 SW13      29.64S
NEWCASTLE      FAIR      28  18  64 N5        29.71F WCI  23

$$
WYZ014>020-022>026-101>103-201200-
CENTRAL WYOMING

CITY           SKY/WX    TMP DP  RH WIND       PRES   REMARKS
BIG PINEY      MOCLDY     9   6  88 S3        30.02F
PINEDALE       CLOUDY    16  12  86 CALM      30.03F
DUBOIS         PTSUNNY   32   7  34 NW22      29.88F WCI  19
LANDER         FAIR      31   8  38 S6        29.81F WCI  25
RIVERTON       FAIR      28  10  46 CALM      29.83F
CASPER         FAIR      39  12  33 SW26G37   29.83R WCI  28
DOUGLAS        FAIR      46  12  25 W14G23    29.74F

$$
WYZ021-027>030-104>119-201200-
SOUTHERN WYOMING

CITY           SKY/WX    TMP DP  RH WIND       PRES   REMARKS
EVANSTON       MOCLDY    29  17  61 SW15      30.05S WCI  18
KEMMERER       FAIR      28  12  50 SW8       30.04S WCI  20
FORT BRIDGER   CLOUDY    30  16  55 W10       30.06S WCI  21
ROCK SPRINGS   FAIR      23  13  65 CALM      30.03F
DIXON          FAIR      18  13  81 NW3       30.10F
RAWLINS        FAIR      32  11  41 SW17      29.99R WCI  21
SARATOGA       FAIR      28  16  59 SE9       30.04R WCI  20
LARAMIE        FAIR      33   8  35 SW18      29.96R WCI  22
CHEYENNE       FAIR      46   0  14 W24G33    29.87F
TORRINGTON     FAIR      48   8  19 W14G22    29.76F
PINE BLUFFS    FAIR      48   0  13 W28G38    29.81F

$$




USA.gov is the U.S. government's official web portal to all federal, state and local government web resources and services.